RH
78 75 59 48 44 37 36 38 38 47 45 56 47 40 42 48 41 51 53 53 68 58 58 57 38 27 25 15 14 12 10 10 10 10 9 8 7 7 8 9 9 13 17 14
45 42 37 32 38 44 40 43 46 42 43 44 50 42 49 57 43 51 65 81 81 58 38 32 26 20 13 13 14 11 10 10 10 9 9 8 7 7 8 9 10 15 17 16
44 39 40 42 38 37 35 35 41 47 50 52 44 48 45 46 67 82 81 63 54 31 26 31 13 16 12 11 12 11 10 10 10 9 8 7 6 8 9 11 13 15 17 14
34 34 30 34 41 40 42 46 56 56 67 56 53 54 81 80 78 69 46 33 25 20 21 17 12 13 11 10 10 9 9 9 9 8 8 7 6 11 11 13 15 16 15 12
36 37 34 41 45 49 54 68 54 70 47 57 61 69 85 83 91 67 31 23 20 20 16 13 12 12 11 10 9 9 9 8 8 8 7 6 6 10 12 14 15 14 12 10
46 46 47 46 43 49 62 46 55 58 76 62 52 47 63 77 66 38 21 19 19 20 12 11 11 12 11 10 9 8 9 8 8 7 7 6 7 9 12 12 12 10 9 8
53 48 44 48 55 53 47 61 57 55 49 60 50 53 58 39 31 20 19 19 17 14 13 10 10 11 10 9 8 8 9 8 8 7 7 6 7 10 12 12 11 9 7 6
70 59 50 57 59 51 55 62 73 82 80 80 60 47 41 25 20 18 17 16 14 12 12 10 10 9 9 8 8 8 9 8 8 7 7 7 9 10 10 10 9 7 6 6
65 55 62 72 71 85 81 80 88 96 70 54 43 33 30 24 16 15 14 14 12 11 11 11 9 8 9 8 8 8 9 8 8 7 7 8 9 10 10 8 6 7 6 6
63 58 78 72 71 85 100 100 92 60 53 37 29 25 22 16 16 15 15 11 10 10 10 10 9 8 8 8 8 8 9 9 7 7 7 8 8 9 9 6 6 6 6 6
55 78 76 75 88 100 100 98 94 68 48 29 23 25 18 15 13 13 12 10 10 9 9 10 10 9 8 7 7 8 9 8 7 7 8 8 9 8 5 5 6 5 5 5
77 78 79 97 100 91 96 100 88 42 33 24 20 17 13 12 11 10 10 9 9 9 8 9 8 8 8 7 7 8 9 8 8 8 9 10 10 6 4 7 5 5 5 4
100 100 100 100 100 100 99 97 63 25 18 16 15 13 11 9 10 9 9 8 8 8 7 7 8 7 7 7 7 8 8 8 10 9 10 11 7 5 5 5 5 5 4 2
100 100 100 100 99 86 78 63 26 16 15 14 12 12 9 8 8 7 8 7 7 6 6 6 7 6 7 7 7 9 8 9 11 11 11 10 6 5 6 5 5 5 3 2
100 100 100 88 74 62 46 20 15 15 13 12 12 10 9 8 7 7 6 6 6 5 5 6 6 6 7 7 8 9 8 11 12 10 10 8 5 6 6 5 6 4 2 2
79 54 39 40 46 35 17 14 13 12 9 9 9 8 8 7 6 6 6 5 5 4 5 6 5 6 7 7 8 9 10 12 12 11 10 7 6 7 5 5 6 3 2 2
28 30 24 24 20 14 13 13 11 9 9 9 8 7 6 5 6 5 5 5 4 4 5 5 5 6 7 8 8 10 12 13 11 11 9 6 7 6 5 6 5 2 2 2
22 21 16 13 11 10 11 10 9 9 9 8 7 6 5 5 4 4 5 5 4 4 5 5 6 7 7 8 9 12 13 13 12 10 8 7 8 6 6 6 4 2 2 2
14 11 11 11 10 10 9 9 8 9 8 7 6 5 5 4 4 4 5 5 5 5 6 6 7 7 8 8 9 12 13 16 13 10 8 7 7 6 7 6 3 2 2 2
9 8 7 7 8 8 8 8 7 6 5 5 5 5 5 4 4 5 5 6 6 6 6 7 8 7 8 8 11 13 15 17 12 10 8 7 6 7 7 6 3 3 2 2
7 6 6 6 6 7 6 5 4 5 5 5 5 5 5 4 4 4 5 6 6 6 7 8 8 8 8 10 13 14 18 16 12 9 7 7 6 8 7 6 3 3 3 2
6 6 6 6 6 6 6 5 5 5 5 5 4 4 4 4 4 4 5 5 5 6 7 8 8 9 10 12 14 16 18 15 12 8 7 8 7 8 7 6 3 3 3 2
7 7 6 6 6 6 6 5 4 4 4 4 4 4 4 4 4 4 5 5 6 7 8 8 9 10 11 14 15 18 18 15 12 8 8 9 7 8 7 6 3 4 4 3
6 7 7 6 5 5 4 4 4 4 4 4 4 4 3 4 4 4 5 5 6 7 8 9 10 11 12 15 17 18 17 15 12 9 8 9 8 8 8 6 4 4 4 4
6 5 5 5 4 4 4 4 4 4 4 4 4 3 4 4 4 4 5 5 6 8 9 10 11 12 14 17 19 19 19 16 12 9 7 10 9 8 7 6 4 4 4 4
5 5 4 4 5 4 4 4 4 4 4 4 4 4 4 4 4 4 5 5 6 8 10 11 12 15 16 19 21 21 21 17 13 11 9 11 9 8 8 6 4 5 5 4
5 5 5 5 5 5 5 5 5 5 5 5 4 4 4 4 5 5 5 6 7 9 11 12 14 17 19 23 23 24 25 19 14 11 10 12 10 8 8 6 5 5 5 5
Wind_Speed
61 65 66 67 67 68 74 77 77 79 81 82 88 89 94 100 100 104 108 111 115 116 113 118 116 110 103 90 76 66 57 54 48 45 43 41 38 41 43 46 51 56 64 65
60 66 62 60 72 78 79 81 80 82 81 86 89 93 98 110 106 113 115 117 120 118 116 123 118 104 89 80 75 65 59 56 49 47 42 41 39 37 41 46 50 57 65 69
60 65 65 69 75 77 79 83 85 86 87 91 93 100 106 108 118 120 122 119 117 115 116 116 108 91 81 76 72 64 61 57 50 46 45 42 39 38 42 45 50 58 64 69
64 65 68 74 76 78 76 81 87 93 100 101 103 105 113 120 119 120 121 123 123 123 122 106 92 83 83 77 69 64 61 56 50 46 46 44 39 37 39 44 52 59 64 68
75 74 76 80 83 78 78 81 96 100 104 111 112 109 118 125 127 125 117 115 121 115 108 92 87 85 83 73 67 62 60 54 51 47 47 45 40 40 42 46 55 62 65 67
86 86 82 83 85 87 92 89 97 106 114 116 112 112 111 120 123 116 112 109 110 102 98 94 89 86 79 73 66 60 58 54 50 48 46 43 41 43 48 52 56 61 62 62
94 91 83 91 93 98 101 107 110 111 112 119 121 116 115 117 118 117 114 112 105 98 99 94 87 81 77 71 65 61 55 53 50 49 45 41 42 45 50 53 57 59 59 59
99 100 97 100 104 111 112 114 124 126 129 127 125 120 119 119 118 115 110 106 100 99 95 91 83 79 76 70 65 60 55 53 51 50 44 42 42 47 52 53 53 55 55 57
105 101 107 112 114 118 122 126 132 135 131 127 124 121 120 117 114 110 105 98 100 94 89 86 80 76 74 69 65 60 56 54 51 49 45 43 43 47 50 49 48 50 52 55
108 109 118 119 123 125 130 135 137 135 131 128 122 119 117 114 111 108 102 100 95 90 86 81 77 75 72 68 63 58 56 54 51 49 46 46 46 48 50 49 45 49 50 52
113 121 123 127 131 133 136 143 144 140 134 128 122 118 116 116 110 106 103 96 92 90 85 78 76 75 71 67 60 56 55 53 50 49 47 48 49 49 50 45 46 47 48 52
126 132 133 133 135 137 144 148 145 135 126 124 122 119 118 115 111 107 102 97 92 88 86 79 74 74 70 63 56 51 52 50 49 49 48 47 50 54 44 45 46 44 46 46
136 141 144 144 144 149 147 147 137 125 122 119 118 118 116 114 110 105 102 93 87 86 82 76 73 71 67 60 53 48 47 46 48 48 48 49 52 50 52 43 42 43 43 41
146 149 150 148 150 143 140 137 127 124 122 120 119 118 119 115 108 102 97 89 83 82 77 71 69 66 62 56 49 46 45 44 46 46 45 50 51 48 45 44 40 38 40 37
154 156 153 146 141 140 137 128 124 122 121 119 118 117 115 110 101 95 91 85 80 76 71 69 67 61 57 52 47 44 41 43 44 45 47 48 49 46 42 39 37 40 35 28
150 143 139 136 136 132 125 121 120 118 117 115 114 111 108 104 97 90 86 80 77 74 69 66 61 56 53 47 45 40 39 38 39 43 46 48 45 42 39 37 34 35 30 23
141 135 130 130 126 121 118 118 118 116 112 111 106 100 97 93 91 87 83 80 77 70 62 58 53 49 46 43 40 37 36 36 38 43 44 46 42 37 36 34 30 30 24 19
131 130 124 121 116 112 111 112 110 107 105 103 99 94 93 91 83 76 75 74 69 61 54 49 47 44 42 37 34 33 32 33 37 41 44 45 41 33 33 30 27 26 19 16
124 120 117 115 113 111 108 106 102 98 98 95 91 88 83 78 72 67 63 63 60 54 48 44 41 39 36 32 30 30 29 33 36 38 42 41 36 29 30 27 22 20 15 13
114 110 106 104 103 103 98 95 91 88 89 85 81 77 73 70 65 61 57 56 53 48 41 38 36 34 30 28 28 27 27 32 36 37 42 38 32 26 27 25 19 15 12 10
107 104 101 97 93 90 90 88 83 80 78 79 74 72 70 65 60 54 50 49 46 40 35 32 32 28 26 25 26 25 28 32 33 36 39 33 26 23 24 22 17 11 9 8
98 95 92 89 86 83 83 79 79 77 74 71 68 63 58 53 48 44 42 40 37 34 30 28 27 25 22 22 22 23 27 30 31 34 34 29 23 22 21 20 15 8 5 7
85 83 80 77 74 72 73 73 71 67 63 59 55 52 47 43 39 36 34 31 29 28 27 26 25 23 19 20 20 23 26 27 29 32 30 25 20 20 19 17 12 6 4 6
74 71 71 70 67 64 62 62 59 56 52 50 47 44 40 36 33 31 27 24 25 26 25 24 23 21 18 17 17 21 23 26 27 29 28 22 17 18 16 14 9 5 3 6
68 66 64 60 57 57 55 53 52 49 48 46 43 39 34 30 28 27 24 23 23 23 22 22 21 19 17 15 16 20 21 25 26 27 26 19 16 17 14 12 7 3 2 6
59 58 56 54 53 51 49 48 47 46 46 42 39 35 30 26 24 23 21 22 22 21 22 21 19 17 15 14 16 18 20 24 24 26 24 18 15 15 12 10 6 1 4 7
56 52 50 49 46 43 42 41 43 42 40 39 36 31 27 23 20 21 21 20 21 22 22 21 19 16 15 14 16 17 19 22 22 23 21 16 15 13 10 8 5 0 6 8
Wind_Direction
301 302 306 308 307 309 309 310 315 315 316 318 316 313 316 318 322 321 321 320 322 322 323 322 322 321 319 320 319 319 318 317 312 301 295 285 276 265 259 245 240 235 230 229
303 304 306 308 309 312 314 314 313 314 311 312 318 317 316 320 318 320 321 321 321 321 321 321 319 317 318 318 318 318 317 317 313 302 294 284 275 262 255 249 241 233 228 231
301 302 302 305 308 307 310 308 310 311 313 315 316 316 318 317 321 321 319 318 319 317 315 320 320 319 319 317 317 316 316 315 311 303 294 284 275 267 259 248 240 235 232 233
303 305 309 307 307 309 311 313 311 316 320 320 318 317 320 321 319 316 315 313 315 313 312 316 319 320 319 317 315 316 315 314 311 304 295 287 277 267 256 247 237 237 238 239
310 306 309 308 307 311 314 316 318 319 318 319 320 319 317 316 316 315 313 313 311 313 313 316 319 320 320 319 317 316 315 312 309 304 295 288 277 266 258 246 242 245 249 250
307 308 308 307 306 309 314 319 316 320 319 318 315 312 310 310 310 311 310 310 313 314 315 317 318 319 319 321 320 317 315 310 306 301 294 287 278 268 261 254 255 259 259 255
307 308 308 311 315 316 319 319 320 317 314 314 313 310 309 309 310 309 311 313 314 314 315 315 317 317 317 319 320 316 313 309 304 300 294 285 277 269 267 265 266 267 264 257
307 311 316 314 316 318 320 319 318 318 316 313 313 309 308 310 310 310 311 311 311 312 313 315 318 316 316 319 318 314 311 309 304 299 294 285 277 272 272 273 274 270 264 260
309 319 316 314 316 317 319 317 315 315 313 312 311 309 308 308 309 310 311 312 311 312 314 315 316 315 317 318 316 313 310 309 303 298 294 288 281 282 279 283 282 274 270 264
313 317 312 314 314 314 313 314 315 314 312 310 309 307 307 307 311 312 311 311 311 312 312 314 315 314 317 316 313 310 307 307 303 299 297 293 290 288 290 292 282 275 270 263
317 311 311 312 313 312 312 312 313 312 311 308 308 308 306 307 309 309 309 309 309 310 310 311 311 311 314 313 310 309 305 304 303 300 298 296 296 295 298 294 287 282 274 268
311 310 310 312 310 311 311 311 312 310 307 306 306 305 305 305 307 308 308 308 310 309 309 310 309 308 311 310 308 306 303 303 302 301 299 300 301 302 301 295 289 282 277 272
307 309 310 308 308 310 310 309 308 305 305 304 303 303 304 305 306 307 307 308 308 306 305 308 307 308 310 308 307 304 302 302 301 299 301 304 305 304 301 295 292 288 283 277
305 305 305 306 307 307 307 307 305 305 304 304 304 305 306 306 307 308 307 306 305 303 304 307 306 309 308 306 304 302 301 300 298 299 303 305 304 305 300 298 299 289 284 278
302 303 304 304 305 306 305 304 304 303 302 302 302 302 303 304 306 306 305 304 304 303 306 307 307 308 306 303 302 300 299 298 298 301 307 307 307 307 301 299 300 295 288 278
301 302 303 302 302 303 304 302 300 299 300 301 302 303 304 305 305 305 304 305 304 306 308 305 305 304 301 299 299 296 295 295 297 304 309 308 308 310 302 302 302 292 289 284
300 301 299 299 300 302 301 300 299 300 302 301 301 301 301 303 304 304 303 302 302 305 305 302 301 300 298 297 294 291 292 297 302 310 309 309 310 309 303 305 303 293 293 287
297 297 296 297 298 297 297 297 298 300 301 300 300 302 302 301 301 300 299 298 301 304 302 300 298 298 295 293 289 288 291 301 306 313 311 311 313 309 306 307 305 295 297 290
294 295 296 296 296 298 299 299 300 299 296 296 299 299 299 299 300 299 296 295 298 299 300 297 294 294 293 290 286 287 295 303 310 313 310 310 315 308 309 310 306 298 302 293
292 294 296 296 297 296 297 296 296 296 296 297 298 299 299 299 299 297 295 293 295 296 298 293 289 289 289 286 283 288 299 307 313 314 311 312 317 311 311 313 311 305 305 290
294 295 295 296 297 297 297 297 297 297 297 299 300 299 299 299 298 296 292 289 291 293 293 288 283 283 283 279 282 290 296 307 316 314 312 317 319 311 313 317 317 311 307 280
295 296 297 297 297 296 297 299 299 299 299 299 299 298 298 298 297 293 287 285 286 285 287 278 275 275 275 274 281 290 295 310 319 313 313 320 321 313 316 322 321 320 304 261
296 295 296 297 296 297 297 297 298 299 299 299 298 298 298 297 297 295 292 286 279 272 271 266 267 268 270 273 281 289 299 314 322 314 315 323 321 314 319 324 321 329 302 235
298 299 297 297 298 297 297 298 299 300 300 299 299 299 299 299 297 293 287 275 263 260 261 260 261 265 265 270 282 292 306 318 322 312 315 324 321 313 321 325 327 336 288 203
297 296 297 299 299 299 300 301 301 302 300 299 300 302 301 298 293 286 276 263 257 254 255 256 258 262 261 267 279 291 310 319 323 316 317 330 324 312 321 329 340 334 248 197
297 298 299 301 300 300 301 301 301 300 298 301 301 302 300 293 288 282 270 259 250 246 246 249 250 251 257 263 278 293 311 319 326 321 318 329 322 307 321 337 355 345 210 197
298 299 301 300 301 303 302 301 298 297 298 300 300 301 298 292 286 276 264 251 239 237 240 243 244 245 254 258 275 294 309 317 327 324 324 334 322 314 328 353 8 197 181 189